EW7329 Weather Reports


time (UTC)temp
C
wind
direction
speed
KPH
gust
KPH
rain 1hr
cm
rain 24hr
cm
rain mn
cm
humidity
%
barometer
mb
20190423104540 10 123 0.0 4.8 0.00 0.05 0.05 86 1009.9
20190423103139 10 59 1.6 6.4 0.00 0.05 0.05 86 1009.8
20190423101638 10 100 1.6 6.4 0.00 0.05 0.05 87 1009.9
20190423100041 10 84 1.6 6.4 0.00 0.05 0.05 87 1009.7
20190423094600 10 110 1.6 6.4 0.00 0.05 0.05 86 1009.7
20190423093033 10 120 1.6 8.0 0.00 0.05 0.05 86 1009.6
20190423091613 10 103 0.0 6.4 0.00 0.05 0.05 86 1009.6
20190423090036 10 53 0.0 6.4 0.00 0.05 0.05 86 1009.3
20190423084526 10 56 1.6 6.4 0.03 0.05 0.05 85 1009.3
20190423083035 10 86 0.0 6.4 0.03 0.05 0.05 86 1009.3
20190423081520 10 51 1.6 4.8 0.03 0.05 0.05 85 1009.2
20190423080038 10 36 3.2 6.4 0.03 0.05 0.05 85 1009.0
20190423074535 -17 0.0 0.0 0.00 0.03 0.03 1009.1
20190423073014 -17 0.0 0.0 0.00 0.03 0.03 1009.1
20190423071512 10 44 0.0 3.2 0.03 0.03 0.03 83 1009.1
20190423070117 10 9 0.0 3.2 0.03 0.03 0.03 83 1009.0
20190423064511 10 9 0.0 1.6 0.03 0.03 0.03 84 1009.1
20190423063011 10 9 0.0 0.0 0.03 0.03 0.03 84 1009.0
20190423061508 10 9 0.0 1.6 0.00 0.00 0.00 82 1009.1
20190423060028 9 9 0.0 3.2 0.00 0.00 0.00 83 1009.1
20190423054520 9 9 1.6 3.2 0.00 0.00 0.00 84 1009.1
20190423053016 8 9 0.0 3.2 0.00 0.00 0.00 84 1009.0
20190423051505 8 9 1.6 3.2 0.00 0.00 0.00 85 1008.9
20190423050005 8 19 0.0 0.0 0.00 0.00 0.00 85 1008.9
20190423044502 8 19 0.0 0.0 0.00 0.00 0.00 84 1008.8
20190423043002 8 19 0.0 0.0 0.00 0.00 0.00 83 1008.7
20190423040135 8 19 0.0 0.0 0.00 0.00 0.00 81 1008.5
20190423034706 8 19 0.0 1.6 0.00 0.00 0.00 81 1008.4
20190423033222 8 19 0.0 1.6 0.00 0.00 0.00 79 1008.4
20190423031742 8 19 0.0 0.0 0.00 0.00 0.00 78 1008.4
20190423030114 8 19 0.0 1.6 0.00 0.00 0.00 76 1008.5
20190423024610 9 19 0.0 3.2 0.00 0.00 0.00 74 1008.5
20190423023140 9 19 0.0 1.6 0.00 0.00 0.00 72 1008.6
20190423021601 10 19 0.0 4.8 0.00 0.00 0.00 72 1008.7
20190423020117 10 19 1.6 3.2 0.00 0.00 0.00 72 1008.8
20190423014627 10 19 0.0 3.2 0.00 0.00 0.00 73 1009.0
20190423013058 9 19 3.2 4.8 0.00 0.00 0.00 72 1008.9
20190423011555 9 36 1.6 3.2 0.00 0.00 0.00 73 1009.0
20190423010125 10 36 0.0 3.2 0.00 0.00 0.00 71 1009.1
20190423004603 10 36 0.0 3.2 0.00 0.00 0.00 70 1009.1
20190423003128 10 36 1.6 3.2 0.00 0.00 0.00 69 1009.1
20190423001608 10 28 1.6 6.4 0.00 0.00 0.00 69 1009.1
20190423000108 10 337 1.6 4.8 0.00 0.00 0.00 70 1009.1
20190422234613 10 360 0.0 1.6 0.00 0.00 0.00 69 1009.2
20190422233122 11 360 0.0 1.6 0.00 0.00 0.00 67 1009.2
20190422231557 11 360 0.0 1.6 0.00 0.00 0.00 65 1009.2
20190422230046 11 360 0.0 6.4 0.00 0.00 0.00 64 1009.1
20190422224605 12 360 1.6 4.8 0.00 0.00 0.00 63 1009.0
20190422223102 12 333 0.0 4.8 0.00 0.00 0.00 60 1009.1
20190422221547 13 280 0.0 3.2 0.00 0.00 0.00 60 1009.1
20190422220034 13 16 1.6 9.7 0.00 0.00 0.00 58 1009.0
20190422214518 13 33 3.2 9.7 0.00 0.00 0.00 58 1009.0
20190422213036 14 11 3.2 12.9 0.00 0.00 0.00 57 1009.1
20190422211539 14 56 4.8 11.3 0.00 0.00 0.00 57 1009.0
20190422210059 14 51 4.8 11.3 0.00 0.00 0.00 57 1008.8
20190422204523 15 42 3.2 14.5 0.00 0.00 0.00 57 1008.7
20190422203043 15 30 3.2 11.3 0.00 0.00 0.00 56 1008.7
20190422201521 15 13 4.8 9.7 0.00 0.00 0.00 55 1008.5
20190422200019 15 32 3.2 6.4 0.00 0.00 0.00 53 1008.5
20190422194511 16 68 1.6 8.0 0.00 0.00 0.00 49 1008.4
20190422193041 16 73 3.2 8.0 0.00 0.00 0.00 45 1008.3
20190422191516 17 26 3.2 9.7 0.00 0.00 0.00 43 1008.1
20190422190033 16 57 3.2 6.4 0.00 0.00 0.00 42 1007.9
20190422184511 17 15 1.6 6.4 0.00 0.00 0.00 42 1007.6
20190422183011 17 54 1.6 4.8 0.00 0.00 0.00 40 1007.2
20190422181531 18 44 0.0 8.0 0.00 0.00 0.00 38 1007.0
20190422180022 18 44 0.0 6.4 0.00 0.00 0.00 35 1006.7
20190422174508 19 46 1.6 6.4 0.00 0.00 0.00 33 1006.6
20190422173008 20 33 1.6 4.8 0.00 0.00 0.00 32 1006.5
20190422171527 21 47 1.6 9.7 0.00 0.00 0.00 31 1006.5
20190422170033 21 67 1.6 12.9 0.00 0.00 0.00 30 1006.5
20190422164505 22 87 4.8 12.9 0.00 0.00 0.00 29 1006.5
20190422163003 22 154 3.2 14.5 0.00 0.00 0.00 29 1006.5
20190422161502 22 57 4.8 16.1 0.00 0.00 0.00 30 1006.4
20190422154707 23 46 4.8 12.9 0.00 0.00 0.00 31 1006.5
20190422153209 23 63 4.8 14.5 0.00 0.00 0.00 32 1006.6
20190422151650 23 66 6.4 16.1 0.00 0.00 0.00 31 1006.7
20190422150202 23 346 4.8 14.5 0.00 0.00 0.00 32 1006.7
20190422144737 23 11 4.8 16.1 0.00 0.00 0.00 33 1006.9
20190422143101 23 103 4.8 16.1 0.00 0.00 0.00 33 1007.2
20190422141644 23 81 4.8 12.9 0.00 0.00 0.00 34 1007.2
20190422140116 23 88 3.2 9.7 0.00 0.00 0.00 36 1007.3
20190422134640 22 11 4.8 17.7 0.00 0.00 0.00 38 1007.3
20190422133129 22 355 4.8 14.5 0.00 0.00 0.00 33 1007.5
20190422131707 23 79 4.8 14.5 0.00 0.00 0.00 33 1007.6
20190422130123 23 85 1.6 8.0 0.00 0.00 0.00 1007.8
20190422124606 -17 0.0 0.0 0.00 0.00 0.00 1008.1
20190422123103 -17 0.0 0.0 0.00 0.00 0.00 1008.2
20190422121553 -17 0.0 0.0 0.00 0.00 0.00 1008.5
20190422120109 -17 0.0 0.0 0.00 0.00 0.00 1008.5
20190422114652 -17 0.0 0.0 0.00 0.00 0.00 1008.6
20190422113039 -17 0.0 0.0 0.00 0.00 0.00 1008.7
20190422111540 22 183 4.8 14.5 0.00 0.00 0.00 37 1008.9
20190422110047 22 174 3.2 8.0 0.00 0.00 0.00 35 1009.0